Wind_Speed
21 21 21 21 20 20 19 19 20 20 19 19 19 20 19 18 18 17 17 17 17 18 18 18 19 18 16 16 16 17 16 16 15 15 15 14 13 13 13 13 14 13 12 11 10 8 7 6 7 8 9 9 10 9 10 11 12 13 14 15 15 15 16
22 22 21 20 21 21 20 20 22 22 21 20 21 22 21 20 19 19 20 20 20 21 21 21 21 20 19 19 19 18 18 18 17 17 16 16 15 14 14 14 14 14 12 10 9 7 5 5 6 8 9 9 9 9 10 11 13 14 15 16 16 16 17
22 23 22 21 21 20 20 22 24 24 22 21 22 23 21 21 20 21 22 22 23 23 23 23 22 22 22 21 20 20 20 20 19 18 18 18 17 16 14 14 14 13 11 9 7 5 4 4 5 6 8 9 9 10 11 13 14 14 15 16 16 17 18
19 21 21 21 21 21 22 24 25 24 22 23 23 23 22 22 21 22 22 22 22 22 22 23 24 25 24 22 22 21 21 21 20 20 20 19 18 16 14 14 14 12 10 9 6 4 4 4 5 5 7 9 10 11 12 14 14 15 16 17 18 18 19
14 17 19 20 21 22 24 24 24 23 23 24 24 23 23 22 22 21 21 21 21 21 22 24 26 26 24 23 22 22 21 20 20 20 20 19 17 16 15 13 13 12 10 8 6 4 4 4 5 6 7 9 11 12 13 14 15 16 17 18 19 20 20
12 15 18 21 22 21 22 22 22 22 23 23 22 22 22 21 20 20 20 20 20 20 22 23 23 23 23 22 22 21 20 20 20 20 19 18 17 15 14 13 12 12 11 8 6 5 4 5 5 7 8 10 12 13 14 15 16 18 19 19 20 20 21
14 15 16 20 22 21 21 22 21 21 22 22 22 22 21 20 19 18 18 19 19 19 20 20 20 20 20 20 20 19 18 19 19 19 19 18 16 15 14 13 13 12 10 8 6 5 5 5 6 8 9 11 13 14 15 16 17 19 21 21 21 22 22
16 16 14 18 21 21 23 23 23 22 22 21 22 21 19 18 18 17 17 18 18 18 18 18 18 18 18 18 18 17 17 18 19 19 18 17 15 15 14 14 13 12 10 8 7 6 6 6 7 9 11 12 13 14 16 17 19 21 22 22 22 23 24
20 18 13 15 21 22 24 24 23 23 22 20 19 18 18 19 19 18 17 18 18 18 17 18 18 18 18 18 17 17 17 17 18 18 17 16 16 15 14 14 14 12 10 8 8 7 7 8 9 10 12 12 13 15 16 18 20 21 21 21 22 24 24
21 20 14 14 19 23 24 23 23 22 20 18 16 16 19 20 21 20 18 17 17 17 17 17 18 18 17 17 17 16 16 16 17 17 16 16 16 16 15 15 14 11 10 9 8 9 9 9 10 11 11 12 14 15 17 19 20 20 20 22 23 25 26
21 21 17 15 21 25 26 26 25 23 20 18 16 16 17 20 22 22 20 18 17 17 17 17 18 17 17 16 16 15 15 16 16 16 16 16 16 16 16 15 13 12 11 10 10 10 10 11 11 11 11 12 14 16 18 19 19 20 21 23 25 27 28
22 23 20 18 22 28 31 32 29 25 23 20 18 18 18 20 23 23 21 19 18 18 18 18 18 18 17 16 16 14 14 15 15 15 16 16 16 17 17 15 14 13 12 11 12 12 12 12 11 10 11 13 15 17 19 20 20 21 23 24 26 28 30
22 23 23 20 21 28 34 36 33 29 26 23 22 22 21 22 24 24 22 21 20 21 20 20 21 20 19 18 16 15 14 14 14 16 17 17 18 18 17 16 15 14 14 14 14 13 13 12 11 10 12 14 16 18 20 21 22 23 25 26 26 29 32
21 21 19 17 19 24 32 35 34 31 28 26 26 25 23 23 23 23 23 23 23 24 23 23 23 22 20 19 19 17 15 15 15 16 18 19 19 18 17 16 15 15 16 16 15 14 13 12 11 12 13 16 18 20 21 22 23 25 26 27 27 29 32
25 22 21 20 20 21 26 31 32 31 29 28 28 27 25 23 22 21 23 25 26 26 26 26 25 23 21 20 20 19 18 17 17 17 18 19 18 17 16 16 17 17 17 17 16 15 13 12 12 12 14 17 20 21 23 24 25 26 28 30 30 31 33
26 26 26 26 25 23 25 29 32 32 31 30 30 29 26 25 24 23 23 25 27 28 28 28 27 24 21 19 20 21 21 21 20 19 19 18 18 17 18 18 19 19 18 18 17 15 13 13 13 13 15 19 21 23 25 26 27 29 31 33 34 35 33
26 26 28 28 27 26 28 31 34 35 34 32 31 30 29 28 28 26 24 25 28 29 29 29 27 25 23 20 20 22 23 24 23 22 21 19 18 19 20 21 21 20 20 20 17 15 14 14 14 15 17 20 22 24 26 28 29 31 34 37 39 38 33
27 28 30 30 29 29 31 34 37 37 36 34 33 31 31 30 30 30 27 25 27 29 29 29 28 26 25 24 24 24 25 26 26 24 22 21 20 20 22 23 22 21 21 20 18 16 16 15 15 17 19 21 23 26 27 28 31 34 37 40 41 37 33
31 32 30 30 31 31 32 35 37 39 38 37 35 32 32 32 31 31 29 26 26 28 30 31 29 28 27 27 27 27 26 27 28 27 25 23 22 23 24 25 24 23 22 21 20 19 18 17 18 19 21 23 25 27 27 29 32 35 37 41 41 38 36
38 37 33 31 32 33 33 33 35 36 36 37 36 35 35 37 36 35 33 30 29 30 31 32 32 31 30 30 29 29 29 29 29 28 27 25 25 25 25 26 25 25 24 23 21 20 19 19 19 20 23 25 27 27 28 31 34 36 36 38 41 43 42
41 42 41 37 35 35 34 34 34 35 35 37 39 39 40 41 40 39 38 37 36 36 34 33 34 33 33 32 32 31 31 31 31 30 29 28 27 27 26 26 26 26 26 24 22 21 21 21 21 22 25 27 28 29 30 33 35 36 36 37 39 44 44
41 44 46 43 41 39 37 37 38 40 40 40 42 42 43 44 44 43 42 42 41 41 38 36 36 36 36 34 34 33 32 32 32 32 31 31 29 28 27 27 27 27 27 25 23 23 22 21 22 23 26 28 30 31 33 35 36 36 38 39 40 43 45
45 44 45 46 46 45 44 43 43 44 45 44 45 46 46 46 47 47 47 45 42 41 41 38 37 37 38 37 36 34 34 34 34 34 34 33 31 30 28 27 27 27 27 27 25 24 23 22 23 25 28 29 32 33 35 36 38 39 41 42 44 46 46
48 46 46 45 45 47 50 50 48 48 47 47 47 48 49 49 50 50 50 48 43 41 41 40 36 36 38 40 39 37 35 35 35 36 35 34 33 31 29 28 28 28 28 28 26 25 25 24 25 27 29 31 33 34 36 38 40 42 44 46 47 48 46
51 49 47 46 45 45 47 50 51 52 53 52 50 48 48 49 51 52 51 50 47 44 43 42 39 37 37 39 41 41 39 37 36 37 37 36 35 33 30 29 29 30 30 29 28 27 27 26 26 28 29 31 32 34 37 39 41 45 46 44 43 42 40
56 54 53 51 49 48 48 48 49 51 53 55 53 50 48 49 51 53 52 50 48 46 44 44 44 42 42 42 42 42 41 39 38 38 38 37 37 35 32 30 31 32 31 30 29 29 27 27 27 28 29 30 32 35 37 39 42 43 41 37 36 36 37
51 55 58 59 57 56 55 53 51 50 51 52 52 53 54 55 55 56 56 55 53 50 47 46 47 48 48 47 45 43 41 40 40 39 38 38 39 37 34 33 34 33 32 31 31 30 29 29 29 29 29 31 32 35 37 38 39 37 35 35 36 37 38
43 46 53 58 59 60 61 60 59 57 54 53 54 55 57 59 60 60 60 61 60 57 52 50 50 51 52 51 48 46 44 41 41 41 40 39 40 39 37 37 37 35 34 34 33 32 32 31 30 29 30 31 32 34 36 37 37 36 35 37 39 40 40
44 43 45 50 53 56 59 63 65 64 62 60 60 61 61 62 62 62 61 62 61 59 56 55 54 53 53 53 51 48 46 44 42 42 41 40 40 41 42 41 39 38 38 37 35 35 35 33 31 30 31 32 33 35 36 37 37 36 37 39 41 41 42
47 47 46 47 48 49 51 55 60 64 65 63 64 67 69 68 66 64 63 63 62 61 60 59 58 56 55 55 52 48 46 45 44 44 43 42 42 44 45 44 43 41 40 38 38 39 37 34 32 32 33 33 34 35 36 37 37 37 39 42 43 43 44
49 49 49 48 49 49 48 48 49 52 53 53 55 60 66 70 72 70 68 67 66 65 64 63 62 60 59 58 56 53 50 49 48 47 46 45 45 46 48 48 46 44 41 40 41 41 37 33 34 35 34 33 34 35 36 36 37 39 41 44 45 45 46
50 50 50 50 51 51 51 49 47 46 47 47 46 48 53 60 66 71 73 74 74 73 70 67 66 66 66 66 67 65 60 56 54 51 49 50 49 49 51 51 48 44 43 43 44 42 37 35 36 37 34 33 33 35 36 36 38 40 42 45 46 47 46
53 52 52 52 53 52 52 52 51 49 49 49 49 50 50 51 55 60 65 70 76 79 79 77 74 73 72 73 75 75 69 62 58 55 53 53 52 52 53 51 47 45 46 46 45 42 38 38 39 37 34 34 34 35 36 37 38 41 43 44 45 45 45
55 54 53 53 54 54 53 54 55 55 54 55 55 56 56 56 55 55 57 61 68 75 79 81 81 80 79 78 79 80 75 66 62 58 56 55 54 54 52 50 47 46 47 46 42 39 38 39 39 37 35 35 35 35 36 38 40 42 43 44 45 45 45
52 52 52 52 52 52 52 53 55 56 56 58 59 60 62 63 62 62 62 63 64 67 70 73 76 76 77 78 80 79 72 64 61 60 57 55 55 54 51 49 47 47 47 44 40 38 39 41 41 37 36 37 38 38 39 40 42 43 45 45 46 46 45
49 49 49 48 49 50 50 50 51 52 53 55 56 58 60 62 64 66 68 68 69 69 67 67 69 71 71 71 70 66 62 58 57 58 56 54 55 54 52 49 48 47 45 43 40 39 41 41 40 38 39 40 40 40 41 43 44 46 47 47 47 46 44
48 47 47 47 48 49 49 49 49 49 50 50 51 52 55 58 60 62 64 66 69 70 66 63 65 69 68 65 62 59 59 56 53 54 54 53 54 54 52 50 48 45 43 41 40 40 41 40 39 40 41 42 42 43 43 45 46 47 47 46 45 44 43
46 46 46 47 47 48 49 48 48 48 47 47 47 49 50 50 51 53 58 64 67 67 66 64 62 62 61 58 53 52 53 50 49 51 53 53 54 52 50 47 45 43 42 41 41 41 41 41 41 42 43 43 43 44 44 46 47 47 46 45 44 42 41
Wind_Direction
240 234 229 228 226 223 226 231 229 224 224 229 235 236 236 236 238 240 239 237 238 239 239 238 238 238 238 240 241 243 246 247 249 250 251 252 254 256 259 266 273 276 274 271 270 274 280 288 296 301 310 319 322 327 333 336 338 339 338 338 339 339 338
241 239 236 231 229 229 230 233 236 233 229 231 235 237 237 236 239 242 242 242 242 241 241 240 238 238 238 240 243 245 247 249 250 252 253 252 253 255 258 263 269 270 266 262 261 267 277 289 297 302 310 317 321 324 326 329 331 333 333 334 334 334 333
247 247 246 238 233 234 233 232 236 236 232 234 237 238 238 239 241 243 245 246 247 247 247 245 243 241 240 240 242 245 247 249 250 251 250 251 254 255 255 258 261 260 255 250 247 255 272 286 292 298 307 315 318 319 319 322 324 327 329 331 331 331 331
253 251 250 243 235 232 230 230 234 234 231 233 237 239 240 242 243 245 247 248 249 249 247 245 243 242 241 241 241 243 245 246 248 249 250 251 253 252 250 249 251 248 240 234 235 242 260 277 289 297 304 310 312 312 314 317 320 323 327 328 329 330 332
258 250 245 241 237 234 232 234 236 236 233 234 238 241 242 245 246 246 248 250 250 248 244 243 242 242 242 241 240 241 242 245 246 247 248 247 245 244 242 238 236 234 227 222 226 238 257 277 288 295 301 304 306 308 311 315 319 324 326 327 329 332 335
273 258 246 240 241 241 239 238 238 236 235 237 240 243 245 247 247 247 250 253 252 249 246 243 242 240 239 238 238 238 239 240 241 241 240 238 235 233 231 227 224 223 222 219 224 237 254 271 281 288 296 298 301 306 311 317 323 325 327 332 339 343 343
277 270 255 242 240 242 240 236 234 231 230 234 238 240 244 247 248 251 256 258 256 252 247 242 237 234 233 232 233 233 232 232 233 233 233 231 226 223 222 219 216 217 219 221 228 238 249 261 271 280 288 293 299 306 313 320 326 330 333 340 348 351 349
265 271 263 243 236 237 236 231 228 224 222 228 235 239 244 248 251 256 261 260 257 251 245 239 233 230 228 227 227 227 226 227 229 229 228 225 220 216 215 214 212 212 218 226 233 237 245 256 265 275 283 291 301 310 317 324 331 336 341 345 348 350 350
258 266 264 242 233 230 231 229 225 222 221 225 233 240 244 246 249 255 260 259 255 250 243 237 233 230 227 226 226 225 224 225 227 227 224 221 217 213 211 211 209 210 218 229 236 237 243 254 264 275 285 295 306 313 320 328 335 341 344 345 345 346 347
259 261 260 246 237 230 227 227 226 225 226 228 233 242 246 248 250 252 256 257 252 248 243 236 234 233 230 228 227 227 226 225 226 225 222 219 215 211 209 208 209 213 221 229 231 233 243 255 265 277 288 299 308 315 322 329 337 341 340 340 340 340 341
255 257 253 242 238 235 231 231 231 229 229 230 235 246 252 253 252 251 254 254 249 246 244 237 236 236 233 231 230 228 227 227 226 224 221 219 215 211 209 208 212 219 224 224 223 230 243 254 263 275 288 300 308 315 322 328 334 336 334 335 336 336 337
249 255 253 242 238 236 233 234 235 231 229 229 232 243 251 251 249 248 250 249 244 244 243 238 237 239 239 238 236 233 231 230 227 224 221 220 216 213 212 212 217 222 221 216 218 229 242 249 259 273 289 301 309 315 320 324 329 330 330 332 333 333 335
243 256 259 254 246 236 230 232 235 234 232 230 231 238 245 247 245 245 247 249 247 244 243 241 242 242 241 241 242 242 240 237 232 226 224 223 219 218 218 218 217 217 214 213 219 229 236 243 257 275 291 300 307 312 316 321 326 326 326 329 329 330 331
241 255 258 255 251 238 228 228 233 235 234 233 233 237 243 246 244 242 244 248 248 246 244 246 248 248 246 243 243 244 246 245 241 233 230 228 225 225 223 219 216 213 212 214 219 225 230 243 264 282 294 300 304 310 315 319 321 321 322 323 324 325 326
244 253 258 258 256 246 231 228 232 234 235 236 238 239 240 241 241 242 244 246 247 248 248 249 251 254 256 252 247 244 244 246 247 243 238 234 233 229 221 215 215 216 217 216 215 220 231 251 272 287 293 297 303 309 313 316 317 317 317 317 318 319 320
249 257 264 263 259 251 237 231 233 236 235 237 240 239 235 233 235 241 247 249 249 250 251 252 253 257 263 265 256 246 242 244 247 248 245 241 237 230 218 213 216 221 221 217 213 221 240 259 273 283 287 293 301 307 310 314 316 316 316 315 314 315 318
247 254 262 262 258 252 241 233 234 236 237 237 241 243 238 232 234 240 246 248 247 248 250 251 253 256 262 267 262 253 246 244 245 248 249 246 241 232 222 217 219 223 223 218 218 231 248 259 269 277 283 290 297 302 307 313 317 318 318 314 312 316 320
246 250 254 254 252 249 241 235 234 236 239 240 241 245 244 241 241 245 247 244 242 245 249 250 252 255 259 261 261 259 254 247 245 247 249 249 246 238 228 222 221 223 221 220 227 241 249 255 263 272 280 287 293 298 305 313 318 320 318 313 313 320 324
239 243 245 245 245 243 240 236 234 235 239 242 243 246 251 253 252 252 252 247 240 241 246 249 251 254 256 258 260 261 258 252 248 248 249 251 249 244 236 227 223 223 221 223 233 244 249 254 261 270 280 287 292 299 307 314 318 319 315 312 315 319 318
233 234 234 238 242 241 239 238 237 237 240 244 247 249 254 256 255 254 255 255 250 245 244 246 248 250 252 255 258 259 257 255 253 250 250 250 250 248 242 234 227 224 222 226 236 245 249 255 263 273 282 288 294 302 309 312 313 313 311 312 313 313 314
235 233 232 234 238 239 239 238 238 238 240 244 247 249 251 254 255 254 255 257 259 256 250 247 247 248 249 251 254 255 254 255 255 253 251 251 250 249 245 238 231 226 225 230 238 245 250 258 268 278 285 291 299 305 308 309 310 309 310 310 308 307 312
235 237 236 236 237 238 240 240 240 239 239 241 244 247 250 253 256 257 256 259 261 259 255 252 250 248 247 248 251 254 254 254 255 255 254 253 251 249 245 240 234 230 230 234 241 247 254 264 273 281 287 294 302 305 306 309 310 310 310 310 306 304 307
232 235 238 239 237 235 236 239 241 241 241 242 243 246 249 252 255 257 257 258 258 255 253 252 250 248 248 248 250 253 253 252 252 254 256 256 253 249 244 239 236 235 236 239 245 251 259 268 275 283 290 297 302 304 305 307 310 310 309 308 305 303 302
232 236 240 244 242 235 234 237 239 241 242 243 244 246 248 249 252 254 255 254 253 252 252 251 248 246 247 248 249 250 251 250 250 253 256 257 254 248 242 237 237 239 241 244 249 257 263 270 279 287 294 299 301 302 304 306 308 307 306 305 302 300 299
235 236 240 245 247 242 239 239 239 240 242 243 244 247 247 248 249 250 251 252 250 249 249 251 250 247 245 247 248 248 249 249 249 251 254 256 254 247 240 237 239 241 244 247 253 259 264 272 281 288 295 298 299 302 306 307 306 305 304 304 302 300 302
236 237 238 240 243 244 244 243 243 243 244 245 246 247 246 247 247 247 248 249 249 249 249 250 251 250 247 246 247 248 248 248 247 248 252 254 252 245 239 238 240 243 247 251 255 261 267 273 280 287 293 297 300 305 307 305 304 304 305 305 304 306 308
237 238 239 240 240 242 243 243 244 244 247 249 250 250 251 251 251 251 252 251 250 251 253 250 249 249 248 247 248 248 248 247 246 246 249 250 246 241 239 240 242 246 250 254 257 263 269 272 277 285 292 297 303 307 306 303 302 302 303 304 306 308 311
241 238 238 240 242 243 243 244 244 244 245 248 251 253 254 255 254 255 256 255 253 253 253 250 246 246 247 247 248 250 249 247 244 243 243 243 240 238 239 241 244 248 252 254 259 264 267 269 276 286 292 297 303 304 303 303 302 300 300 302 304 307 309
244 240 237 239 241 243 244 244 245 245 245 247 249 251 253 255 255 255 255 255 255 253 252 250 246 243 244 245 247 249 249 247 243 240 239 238 235 236 240 243 246 249 252 254 258 262 264 267 275 285 291 295 298 300 301 302 301 298 298 300 302 304 306
245 244 241 239 240 242 244 244 245 246 247 248 249 250 251 251 252 253 253 253 254 253 252 251 248 244 241 241 242 245 247 247 243 238 235 234 232 234 239 243 246 249 251 254 258 261 263 268 275 282 288 293 295 296 298 299 298 297 297 298 300 302 304
247 247 248 247 246 247 248 247 247 247 247 247 248 249 250 250 250 251 252 252 253 253 252 252 251 246 242 240 239 243 247 247 243 237 233 231 231 232 237 242 245 248 251 254 258 261 265 271 275 278 283 289 292 294 295 296 297 298 297 298 299 301 304
250 251 252 253 253 253 253 254 255 256 256 254 252 250 250 250 250 251 252 251 251 252 252 252 252 249 247 246 246 249 250 246 239 235 231 230 229 230 235 240 244 248 251 254 257 261 265 270 274 277 281 286 288 290 291 293 295 296 297 299 302 304 305
251 253 255 256 257 257 257 259 261 264 264 263 262 260 258 255 254 255 255 254 253 252 253 254 254 253 253 251 251 253 250 240 233 232 230 228 229 230 234 239 243 247 250 253 257 261 264 269 273 277 280 283 285 286 288 290 292 294 296 300 304 307 306
247 251 254 257 258 258 259 260 262 264 264 264 263 263 263 263 262 260 259 258 256 254 254 255 256 257 257 255 254 253 246 233 225 227 228 227 228 231 234 238 243 247 250 253 257 261 264 268 272 276 279 281 283 285 286 288 291 293 296 299 303 306 306
248 251 254 256 257 257 257 258 259 261 263 263 262 262 263 265 265 264 263 261 259 258 257 256 257 258 258 257 255 250 241 227 220 222 224 224 226 230 234 238 243 246 250 254 258 262 265 268 271 274 278 280 283 285 286 287 290 293 295 298 302 304 304
250 252 254 255 256 256 257 259 261 263 264 263 263 263 262 262 263 262 262 262 261 261 259 259 261 262 262 262 259 248 235 226 220 219 219 221 224 228 232 235 239 244 248 254 259 263 266 270 273 275 277 280 283 285 286 288 291 293 295 298 300 302 302
252 254 256 257 259 260 260 262 264 265 266 266 265 264 262 262 262 260 260 260 260 260 260 261 264 263 263 267 264 247 232 226 221 217 215 217 221 225 229 232 237 243 248 253 258 261 264 268 271 273 275 278 280 283 285 289 292 294 295 298 300 300 299
256 258 260 262 264 265 265 267 267 267 267 268 268 267 267 265 262 261 261 259 258 260 260 260 260 262 264 266 259 240 225 218 214 211 210 214 219 224 227 232 237 243 248 253 257 259 262 265 267 270 272 275 277 281 285 288 291 293 296 298 299 298 296
Height
5889 5890 5890 5892 5893 5894 5895 5897 5898 5899 5899 5900 5901 5902 5903 5904 5904 5906 5907 5908 5909 5910 5911 5912 5913 5914 5915 5916 5917 5918 5918 5919 5919 5919 5919 5919 5919 5920 5920 5920 5919 5919 5919 5919 5919 5919 5919 5920 5920 5919 5919 5919 5919 5918 5918 5917 5916 5915 5914 5913 5911 5910 5909
5887 5888 5889 5890 5891 5892 5893 5894 5896 5897 5898 5898 5899 5900 5901 5902 5902 5904 5905 5906 5907 5907 5908 5909 5910 5911 5912 5913 5914 5915 5916 5917 5917 5917 5917 5917 5917 5917 5918 5917 5917 5917 5917 5917 5917 5918 5918 5919 5919 5919 5918 5918 5918 5917 5917 5916 5915 5914 5913 5911 5910 5909 5907
5885 5886 5887 5888 5889 5889 5890 5892 5893 5894 5895 5896 5897 5898 5899 5899 5900 5901 5902 5903 5904 5905 5906 5907 5908 5909 5910 5910 5911 5912 5913 5914 5915 5915 5915 5914 5914 5915 5915 5915 5915 5915 5915 5915 5916 5916 5917 5917 5918 5918 5917 5917 5916 5916 5915 5915 5914 5913 5911 5910 5909 5907 5906
5884 5884 5885 5885 5886 5887 5888 5889 5890 5891 5893 5893 5895 5896 5897 5897 5898 5899 5900 5901 5901 5902 5903 5904 5905 5906 5907 5908 5908 5909 5910 5911 5912 5912 5912 5912 5912 5912 5912 5912 5912 5913 5913 5914 5914 5915 5915 5916 5916 5917 5916 5916 5915 5914 5914 5913 5912 5911 5910 5908 5907 5906 5904
5881 5882 5882 5883 5884 5885 5886 5887 5888 5889 5890 5891 5893 5894 5894 5895 5896 5897 5898 5899 5899 5900 5900 5901 5901 5903 5904 5905 5906 5906 5907 5908 5909 5909 5909 5909 5909 5909 5909 5910 5910 5911 5911 5912 5913 5913 5914 5914 5915 5915 5915 5914 5913 5912 5911 5910 5910 5909 5908 5907 5906 5905 5904
5878 5879 5880 5881 5882 5883 5885 5885 5886 5887 5888 5889 5891 5891 5892 5893 5894 5895 5896 5896 5897 5897 5898 5898 5899 5901 5901 5902 5902 5903 5904 5904 5905 5906 5906 5906 5906 5906 5907 5907 5908 5909 5909 5910 5911 5912 5912 5913 5913 5913 5913 5912 5911 5910 5909 5908 5908 5907 5906 5905 5904 5903 5902
5876 5876 5877 5878 5880 5881 5882 5883 5883 5885 5886 5887 5888 5888 5890 5891 5892 5893 5894 5894 5895 5895 5896 5897 5897 5898 5899 5899 5899 5900 5901 5901 5902 5902 5903 5903 5904 5904 5904 5905 5906 5907 5907 5908 5909 5910 5911 5911 5911 5911 5911 5910 5909 5907 5907 5906 5906 5905 5904 5903 5903 5901 5900
5873 5874 5874 5875 5877 5878 5879 5880 5881 5883 5884 5884 5885 5886 5888 5890 5891 5892 5892 5893 5893 5893 5894 5895 5895 5896 5896 5896 5897 5897 5898 5898 5899 5900 5900 5901 5901 5902 5902 5903 5904 5905 5905 5906 5907 5908 5909 5909 5909 5909 5909 5908 5907 5905 5904 5904 5904 5903 5902 5901 5900 5899 5898
5871 5871 5872 5872 5874 5875 5876 5878 5879 5880 5881 5881 5883 5884 5886 5888 5889 5890 5891 5891 5891 5892 5893 5893 5894 5894 5894 5895 5895 5895 5896 5896 5897 5897 5898 5898 5899 5900 5900 5901 5902 5903 5904 5904 5905 5906 5906 5907 5907 5906 5906 5905 5904 5903 5902 5902 5902 5901 5900 5898 5897 5896 5895
5867 5868 5870 5870 5871 5873 5874 5875 5876 5876 5877 5879 5880 5882 5883 5885 5886 5888 5888 5889 5889 5890 5891 5892 5892 5893 5893 5893 5893 5893 5894 5894 5894 5895 5895 5896 5896 5897 5898 5899 5900 5900 5901 5902 5903 5904 5904 5904 5904 5904 5903 5902 5901 5901 5900 5900 5900 5899 5897 5896 5895 5893 5892
5863 5865 5867 5869 5870 5871 5871 5872 5873 5874 5875 5876 5878 5879 5880 5882 5883 5885 5886 5887 5888 5889 5889 5890 5891 5891 5892 5892 5891 5892 5892 5892 5892 5893 5893 5894 5894 5895 5896 5897 5897 5898 5899 5900 5901 5901 5902 5902 5902 5901 5901 5900 5899 5898 5898 5897 5897 5896 5895 5894 5892 5891 5889
5859 5860 5864 5866 5867 5869 5869 5869 5870 5871 5872 5874 5876 5877 5878 5879 5880 5882 5883 5884 5885 5886 5887 5888 5889 5889 5890 5890 5890 5890 5890 5890 5890 5891 5891 5891 5892 5893 5894 5895 5895 5896 5897 5898 5898 5899 5899 5899 5899 5899 5899 5898 5897 5896 5895 5895 5894 5893 5892 5891 5890 5888 5886
5856 5857 5860 5862 5863 5864 5865 5867 5868 5868 5870 5872 5873 5875 5876 5877 5878 5879 5881 5882 5883 5884 5885 5886 5887 5887 5888 5888 5888 5888 5888 5888 5888 5888 5889 5889 5890 5891 5891 5892 5893 5894 5895 5895 5896 5897 5897 5897 5897 5897 5896 5896 5895 5894 5893 5893 5892 5890 5889 5888 5886 5885 5883
5852 5853 5856 5858 5859 5860 5862 5864 5865 5866 5867 5869 5870 5872 5874 5874 5875 5877 5878 5879 5880 5881 5882 5883 5884 5885 5886 5886 5886 5886 5886 5886 5886 5886 5887 5887 5887 5888 5889 5890 5891 5891 5892 5893 5894 5894 5894 5895 5894 5894 5894 5893 5892 5891 5891 5890 5889 5888 5886 5884 5883 5882 5880
5849 5850 5853 5855 5856 5857 5859 5861 5862 5862 5864 5866 5867 5869 5871 5872 5873 5874 5875 5876 5877 5878 5880 5880 5881 5882 5883 5884 5884 5884 5885 5884 5884 5884 5884 5885 5885 5886 5887 5887 5888 5888 5889 5890 5891 5892 5892 5892 5892 5891 5891 5890 5889 5889 5889 5888 5887 5885 5883 5881 5879 5878 5878
5846 5847 5849 5851 5853 5854 5856 5857 5859 5860 5861 5863 5864 5866 5868 5869 5871 5872 5873 5874 5874 5876 5877 5877 5878 5879 5880 5882 5882 5882 5882 5882 5882 5882 5882 5883 5883 5884 5884 5884 5885 5885 5886 5887 5888 5889 5889 5889 5889 5889 5888 5887 5886 5886 5886 5885 5884 5883 5880 5877 5874 5874 5875
5842 5844 5846 5847 5849 5851 5853 5854 5856 5857 5858 5859 5861 5862 5865 5867 5868 5869 5871 5871 5872 5873 5874 5874 5875 5876 5878 5879 5880 5879 5879 5879 5879 5880 5880 5880 5881 5881 5881 5881 5882 5883 5883 5884 5885 5886 5886 5887 5886 5886 5885 5884 5884 5884 5883 5883 5882 5880 5877 5873 5869 5870 5872
5839 5841 5842 5844 5845 5848 5850 5851 5852 5853 5854 5855 5857 5858 5860 5862 5864 5865 5867 5868 5869 5870 5871 5871 5873 5874 5875 5876 5876 5876 5876 5877 5876 5877 5877 5878 5878 5878 5878 5878 5879 5880 5881 5882 5882 5883 5883 5884 5884 5883 5883 5882 5882 5881 5881 5881 5880 5878 5874 5868 5866 5869 5870
5835 5837 5839 5840 5841 5844 5846 5847 5848 5849 5850 5851 5853 5855 5857 5859 5860 5861 5863 5865 5867 5867 5867 5868 5870 5871 5872 5873 5873 5873 5874 5874 5874 5874 5875 5875 5875 5875 5875 5875 5876 5877 5878 5879 5879 5879 5880 5881 5881 5880 5880 5879 5879 5879 5879 5879 5877 5875 5871 5866 5864 5866 5865
5832 5833 5835 5836 5837 5839 5841 5843 5844 5845 5847 5848 5849 5852 5853 5854 5856 5858 5860 5861 5862 5863 5864 5865 5867 5868 5869 5869 5870 5871 5871 5870 5870 5871 5872 5872 5872 5872 5872 5873 5874 5874 5875 5876 5876 5877 5877 5877 5877 5877 5877 5876 5876 5876 5877 5876 5874 5872 5869 5865 5862 5860 5858
5827 5829 5830 5832 5834 5835 5837 5839 5840 5841 5843 5844 5845 5847 5849 5849 5851 5853 5855 5856 5857 5859 5860 5862 5863 5865 5866 5866 5866 5867 5867 5867 5867 5868 5868 5868 5868 5868 5869 5870 5871 5871 5872 5872 5873 5873 5874 5874 5874 5874 5874 5873 5873 5873 5873 5872 5870 5868 5866 5864 5861 5857 5854
5821 5823 5825 5828 5830 5831 5833 5835 5836 5837 5839 5840 5841 5842 5844 5845 5846 5848 5850 5851 5852 5854 5856 5857 5858 5860 5862 5863 5863 5863 5864 5864 5864 5864 5864 5864 5864 5865 5866 5866 5867 5868 5868 5869 5869 5870 5870 5870 5870 5870 5870 5870 5870 5869 5869 5868 5866 5865 5863 5861 5859 5855 5851
5815 5816 5818 5821 5824 5826 5828 5829 5830 5832 5834 5835 5836 5837 5839 5841 5841 5843 5844 5845 5847 5848 5850 5852 5853 5855 5857 5859 5860 5860 5860 5861 5861 5860 5860 5861 5861 5862 5862 5863 5864 5864 5865 5865 5865 5866 5866 5866 5866 5866 5866 5866 5866 5865 5864 5863 5862 5861 5859 5858 5856 5853 5850
5812 5813 5814 5816 5818 5820 5822 5823 5825 5827 5828 5830 5831 5833 5834 5836 5836 5837 5838 5840 5842 5843 5843 5845 5848 5850 5852 5854 5855 5856 5856 5857 5857 5857 5857 5857 5857 5858 5859 5860 5860 5861 5861 5861 5861 5862 5862 5862 5862 5862 5862 5862 5861 5860 5859 5858 5857 5856 5855 5853 5851 5848 5846
5809 5811 5812 5813 5814 5816 5817 5819 5820 5821 5823 5824 5826 5828 5829 5830 5831 5832 5833 5835 5837 5837 5838 5839 5842 5844 5847 5849 5850 5851 5852 5853 5853 5853 5853 5853 5853 5854 5855 5856 5857 5857 5857 5857 5857 5857 5858 5858 5858 5859 5858 5858 5857 5855 5855 5854 5853 5851 5849 5848 5845 5843 5842
5805 5807 5809 5810 5811 5812 5813 5815 5816 5817 5818 5819 5821 5823 5824 5824 5825 5826 5828 5830 5831 5831 5832 5834 5836 5838 5840 5842 5843 5845 5846 5848 5849 5849 5849 5849 5849 5850 5851 5852 5852 5852 5852 5853 5853 5853 5853 5854 5854 5854 5854 5853 5852 5851 5850 5849 5848 5846 5844 5842 5840 5838 5837
5801 5803 5804 5805 5807 5808 5809 5811 5812 5813 5814 5815 5817 5817 5817 5818 5818 5819 5822 5824 5825 5826 5828 5830 5831 5832 5832 5834 5836 5839 5840 5843 5844 5845 5845 5845 5845 5845 5846 5847 5847 5847 5847 5848 5848 5849 5849 5849 5849 5849 5849 5848 5847 5847 5846 5845 5843 5841 5839 5837 5836 5834 5833
5795 5797 5798 5799 5801 5803 5804 5806 5808 5809 5810 5811 5812 5812 5811 5811 5812 5813 5815 5816 5817 5821 5824 5824 5825 5825 5826 5828 5830 5832 5834 5836 5838 5840 5841 5841 5840 5840 5841 5841 5841 5842 5842 5843 5843 5844 5844 5844 5845 5845 5844 5843 5843 5843 5841 5839 5838 5836 5834 5833 5831 5830 5829
5789 5790 5792 5793 5795 5797 5799 5801 5802 5803 5805 5806 5807 5807 5806 5805 5805 5807 5808 5808 5810 5814 5816 5816 5817 5819 5821 5822 5823 5825 5827 5830 5832 5834 5835 5836 5836 5835 5835 5835 5836 5836 5837 5838 5839 5839 5839 5840 5840 5840 5839 5839 5838 5837 5836 5834 5833 5831 5830 5828 5827 5825 5824
5782 5784 5785 5787 5789 5791 5793 5794 5796 5797 5798 5800 5800 5799 5800 5799 5800 5801 5802 5803 5804 5806 5807 5808 5810 5812 5814 5815 5817 5818 5821 5823 5825 5827 5829 5831 5831 5830 5829 5830 5830 5831 5832 5833 5834 5834 5835 5836 5835 5834 5834 5834 5833 5832 5831 5830 5829 5827 5826 5824 5822 5821 5820
5776 5778 5779 5781 5783 5785 5786 5788 5789 5790 5791 5792 5792 5792 5792 5792 5793 5794 5796 5797 5798 5797 5798 5800 5803 5805 5806 5807 5809 5811 5813 5816 5818 5820 5822 5824 5824 5824 5823 5824 5824 5826 5828 5829 5829 5830 5831 5831 5830 5829 5829 5828 5827 5826 5826 5825 5824 5822 5821 5819 5818 5816 5815
5770 5772 5773 5774 5776 5778 5779 5780 5781 5782 5783 5783 5784 5785 5785 5786 5787 5787 5788 5789 5789 5789 5790 5792 5793 5796 5798 5799 5800 5802 5805 5808 5810 5812 5814 5815 5816 5817 5817 5818 5820 5822 5823 5823 5824 5825 5825 5825 5824 5824 5824 5823 5822 5821 5821 5820 5819 5817 5815 5814 5812 5811 5810
5765 5766 5767 5768 5769 5771 5772 5773 5773 5774 5774 5774 5775 5776 5778 5779 5781 5781 5781 5781 5781 5782 5783 5784 5785 5787 5788 5790 5790 5791 5794 5798 5801 5803 5805 5807 5808 5809 5810 5812 5815 5817 5817 5818 5819 5820 5820 5819 5818 5818 5818 5817 5817 5816 5815 5814 5813 5812 5810 5808 5807 5806 5804
5760 5761 5762 5762 5763 5765 5766 5767 5767 5767 5768 5768 5768 5769 5770 5772 5774 5775 5775 5774 5773 5774 5776 5777 5778 5778 5778 5779 5778 5778 5781 5785 5788 5792 5796 5798 5800 5801 5804 5807 5809 5811 5812 5813 5814 5814 5814 5813 5813 5813 5813 5812 5811 5810 5809 5808 5807 5806 5804 5803 5802 5800 5798
5755 5756 5756 5757 5758 5759 5760 5761 5761 5762 5762 5762 5763 5764 5765 5766 5767 5767 5766 5765 5765 5767 5768 5769 5768 5767 5768 5767 5765 5765 5769 5773 5776 5780 5785 5790 5793 5796 5798 5801 5803 5804 5806 5807 5808 5808 5807 5806 5806 5806 5806 5806 5805 5804 5803 5802 5801 5800 5799 5797 5796 5794 5793
5749 5750 5751 5752 5752 5753 5754 5754 5755 5756 5756 5756 5756 5758 5758 5759 5758 5758 5757 5756 5755 5756 5757 5759 5759 5757 5757 5758 5756 5758 5763 5767 5769 5772 5776 5781 5785 5788 5790 5793 5795 5797 5799 5800 5801 5802 5801 5801 5801 5801 5801 5800 5799 5798 5798 5796 5795 5794 5793 5792 5790 5789 5787
5744 5745 5746 5746 5746 5747 5747 5748 5748 5749 5748 5748 5749 5749 5749 5748 5748 5748 5747 5747 5745 5745 5748 5751 5750 5748 5747 5747 5748 5751 5756 5760 5762 5765 5769 5773 5776 5779 5782 5785 5788 5791 5793 5795 5795 5796 5796 5796 5796 5795 5795 5795 5794 5793 5792 5791 5790 5788 5787 5786 5785 5783 5781
5739 5740 5740 5740 5741 5741 5741 5742 5742 5742 5741 5741 5741 5740 5739 5739 5738 5738 5737 5736 5735 5737 5739 5741 5740 5738 5737 5736 5737 5742 5748 5752 5755 5757 5760 5764 5769 5772 5776 5779 5783 5785 5787 5789 5790 5790 5790 5790 5790 5789 5789 5788 5788 5787 5786 5785 5784 5783 5782 5781 5779 5777 5775